Location: *
(13.2257°S, 48.7193°W)
Time: 13:37:21
(UTC+00:00)

CZ-4C R/B - Pass Details

Date: 13 February 2026
Orbit: 480 x 1497 km, 63.4° (Epoch: 11 March)

Event Time Altitude Azimuth Distance (km) Brightness Sun altitude
Exits shadow 06:35:30 29° 25° (NNE) 2,461 4.4 -36.7°
Maximum altitude 06:39:16 41° 69° (ENE) 2,059 4.3 -35.9°
Drops below altitude 10° 06:47:25 10° 135° (SE) 3,508 6.1 -34.1°
Sets 06:50:25 0° 141° (SE) 4,392 6.8 -33.5°
